KLM14Z LLBG-EHAM

Flight info

Callsign KLM14Z
Flight time N/A
Altitude 34000
Route SUVAS N128 OTHON DCT VAXOS UN128 FOXLI/N0467F360 UN128 RDS UL609 MES DCT DISOR DCT LONTA UL608 DOLEV DCT IRDIV DCT PODET DCT SIMBA DCT GASKA DCT MASEK DCT MAPOX DCT BIGGE DCT AMSAN T281 NORKU
Aircraft B738/M-SDE1FGHIRWXY/LB1

Departure

Time 2026-05-01 09:07
Airport Ben Gurion International Airport (LLBG)

Arrival

Time N/A
Airport Amsterdam Airport Schiphol (EHAM)
Time Latitude Longitude Altitude Speed Heading
2026-05-01 08:46 32.00431 34.87552 143 ft 0 kts 224°
2026-05-01 08:58 32.00431 34.87553 143 ft 1 kts 224°
2026-05-01 08:59 32.00442 34.87564 143 ft 3 kts 218°
2026-05-01 08:59 32.00459 34.87577 143 ft 3 kts 202°
2026-05-01 08:59 32.00477 34.87582 143 ft 3 kts 177°
2026-05-01 08:59 32.00494 34.87577 143 ft 3 kts 133°
2026-05-01 09:00 32.00499 34.87567 143 ft 2 kts 66°
2026-05-01 09:00 32.00498 34.87563 143 ft 0 kts 53°
2026-05-01 09:02 32.00509 34.87583 143 ft 9 kts 57°
2026-05-01 09:02 32.00563 34.87677 143 ft 13 kts 48°
2026-05-01 09:02 32.00633 34.87743 143 ft 14 kts 71°
2026-05-01 09:02 32.00590 34.87855 143 ft 15 kts 116°
2026-05-01 09:03 32.00638 34.87954 143 ft 17 kts 26°
2026-05-01 09:03 32.00742 34.88027 143 ft 19 kts 31°
2026-05-01 09:03 32.00862 34.88113 143 ft 20 kts 32°
2026-05-01 09:03 32.00981 34.88201 143 ft 22 kts 31°
2026-05-01 09:04 32.01119 34.88299 143 ft 24 kts 31°
2026-05-01 09:04 32.01265 34.88408 143 ft 26 kts 37°
2026-05-01 09:04 32.01390 34.88557 143 ft 25 kts 53°
2026-05-01 09:04 32.01475 34.88748 143 ft 27 kts 69°
2026-05-01 09:05 32.01516 34.88966 143 ft 27 kts 78°
2026-05-01 09:05 32.01553 34.89144 143 ft 20 kts 45°
2026-05-01 09:05 32.01666 34.89145 143 ft 15 kts 349°
2026-05-01 09:05 32.01742 34.89085 143 ft 15 kts 267°
2026-05-01 09:06 32.01714 34.88892 143 ft 46 kts 259°
2026-05-01 09:06 32.01620 34.88278 143 ft 106 kts 261°
2026-05-01 09:06 32.01456 34.87215 149 ft 156 kts 258°
2026-05-01 09:06 32.01217 34.85901 615 ft 168 kts 257°
2026-05-01 09:07 32.00949 34.84595 1435 ft 165 kts 257°
2026-05-01 09:07 32.00679 34.83258 2074 ft 172 kts 258°
2026-05-01 09:07 32.00404 34.81873 2753 ft 175 kts 258°
2026-05-01 09:07 32.00122 34.80465 3414 ft 180 kts 257°
2026-05-01 09:08 31.99817 34.78951 3829 ft 202 kts 257°
2026-05-01 09:08 31.99472 34.77237 4128 ft 227 kts 257°
2026-05-01 09:08 31.99268 34.75301 4481 ft 248 kts 272°
2026-05-01 09:08 31.99584 34.73255 5109 ft 260 kts 287°
2026-05-01 09:09 32.00206 34.71214 5823 ft 269 kts 291°
2026-05-01 09:09 32.00905 34.69139 6602 ft 275 kts 291°
2026-05-01 09:09 32.01583 34.67015 7364 ft 280 kts 290°
2026-05-01 09:09 32.02242 34.64844 7811 ft 282 kts 287°
2026-05-01 09:10 32.02680 34.62592 8218 ft 284 kts 278°
2026-05-01 09:10 32.02881 34.60270 9015 ft 285 kts 274°
2026-05-01 09:10 32.02982 34.57925 9829 ft 287 kts 272°
2026-05-01 09:10 32.03093 34.55572 10623 ft 290 kts 272°
2026-05-01 09:11 32.03210 34.53166 11260 ft 298 kts 272°
2026-05-01 09:11 32.03336 34.50675 11691 ft 313 kts 273°
2026-05-01 09:11 32.03475 34.48072 12014 ft 330 kts 272°
2026-05-01 09:11 32.03622 34.45290 12278 ft 349 kts 272°
2026-05-01 09:12 32.03784 34.42372 12521 ft 366 kts 273°
2026-05-01 09:12 32.03969 34.39312 12750 ft 382 kts 273°
2026-05-01 09:12 32.04152 34.36132 13082 ft 393 kts 273°
2026-05-01 09:12 32.04334 34.32907 13674 ft 395 kts 273°
2026-05-01 09:13 32.04515 34.29667 14301 ft 397 kts 273°
2026-05-01 09:13 32.04747 34.26421 14891 ft 399 kts 277°
2026-05-01 09:13 32.05376 34.23231 15483 ft 401 kts 287°
2026-05-01 09:13 32.06440 34.20183 16057 ft 404 kts 295°
2026-05-01 09:14 32.07767 34.17249 16587 ft 407 kts 298°
2026-05-01 09:14 32.09223 34.14382 17120 ft 409 kts 300°
2026-05-01 09:14 32.10710 34.11513 17626 ft 410 kts 299°
2026-05-01 09:14 32.12184 34.08623 18121 ft 412 kts 299°
2026-05-01 09:15 32.13660 34.05709 18588 ft 414 kts 299°
2026-05-01 09:15 32.15140 34.02785 19027 ft 417 kts 299°
2026-05-01 09:15 32.16610 33.99879 19477 ft 418 kts 299°
2026-05-01 09:15 32.18183 33.96981 19912 ft 421 kts 302°
2026-05-01 09:16 32.19869 33.94139 20321 ft 423 kts 304°
2026-05-01 09:16 32.21605 33.91321 20746 ft 425 kts 304°
2026-05-01 09:16 32.23344 33.88488 21124 ft 427 kts 304°
2026-05-01 09:17 32.26831 33.82766 21926 ft 430 kts 303°
2026-05-01 09:17 32.28575 33.79878 22250 ft 433 kts 302°
2026-05-01 09:17 32.32066 33.74044 22936 ft 436 kts 301°
2026-05-01 09:18 32.33820 33.71108 23255 ft 438 kts 301°
2026-05-01 09:18 32.37345 33.65213 23905 ft 441 kts 302°
2026-05-01 09:19 32.40929 33.59281 24475 ft 444 kts 302°
2026-05-01 09:19 32.42693 33.56344 24784 ft 444 kts 302°
2026-05-01 09:19 32.44485 33.53353 25019 ft 447 kts 302°
2026-05-01 09:20 32.48081 33.47334 25573 ft 449 kts 302°
2026-05-01 09:20 32.51689 33.41279 26167 ft 448 kts 302°
2026-05-01 09:21 32.55266 33.35265 26883 ft 445 kts 302°
2026-05-01 09:21 32.57047 33.32265 27210 ft 444 kts 302°
2026-05-01 09:21 32.60583 33.26303 27952 ft 440 kts 302°
2026-05-01 09:22 32.64098 33.20368 28642 ft 437 kts 302°
2026-05-01 09:22 32.67577 33.14484 29374 ft 434 kts 302°
2026-05-01 09:23 32.69308 33.11551 29686 ft 434 kts 302°
2026-05-01 09:23 32.72753 33.05711 30418 ft 430 kts 302°
2026-05-01 09:24 32.76175 32.99901 31097 ft 427 kts 302°
2026-05-01 09:24 32.77851 32.97051 31394 ft 426 kts 302°
2026-05-01 09:24 32.81244 32.91276 32001 ft 425 kts 302°
2026-05-01 09:25 32.84609 32.85541 32687 ft 420 kts 302°
2026-05-01 09:25 32.87946 32.79844 33287 ft 418 kts 302°
2026-05-01 09:26 32.89603 32.77011 33577 ft 417 kts 302°
2026-05-01 09:26 32.92911 32.71352 33962 ft 418 kts 302°
2026-05-01 09:26 32.94567 32.68513 33980 ft 417 kts 302°
2026-05-01 09:27 32.99512 32.60030 33985 ft 414 kts 302°
2026-05-01 09:28 33.02773 32.54424 33983 ft 414 kts 302°
2026-05-01 09:28 33.06066 32.48756 33983 ft 413 kts 302°
2026-05-01 09:29 33.10943 32.40343 33990 ft 412 kts 302°
2026-05-01 09:30 33.15827 32.31901 33989 ft 411 kts 303°
2026-05-01 09:30 33.20670 32.23508 33988 ft 410 kts 303°
2026-05-01 09:31 33.23900 32.17902 33990 ft 409 kts 303°
2026-05-01 09:32 33.28733 32.09512 33989 ft 408 kts 303°
2026-05-01 09:32 33.33558 32.01137 33988 ft 407 kts 303°
2026-05-01 09:33 33.36741 31.95562 33987 ft 404 kts 303°
2026-05-01 09:34 33.41468 31.87266 33986 ft 404 kts 303°
2026-05-01 09:34 33.46216 31.78926 33985 ft 404 kts 303°
2026-05-01 09:35 33.50957 31.70588 33985 ft 404 kts 303°
2026-05-01 09:36 33.54118 31.65013 33984 ft 404 kts 303°
2026-05-01 09:36 33.57270 31.59439 33984 ft 404 kts 303°
2026-05-01 09:37 33.60420 31.53864 33980 ft 404 kts 303°
2026-05-01 09:37 33.65141 31.45490 33979 ft 404 kts 303°
2026-05-01 09:38 33.69871 31.37179 33979 ft 404 kts 303°
2026-05-01 09:39 33.74598 31.28801 33978 ft 404 kts 303°
2026-05-01 09:39 33.77751 31.23208 33978 ft 404 kts 303°
2026-05-01 09:40 33.82474 31.14827 33978 ft 403 kts 303°
2026-05-01 09:41 33.85605 31.09220 33978 ft 403 kts 303°
2026-05-01 09:41 33.89771 31.01740 33977 ft 403 kts 303°
2026-05-01 09:42 33.93405 30.95211 33977 ft 403 kts 303°
2026-05-01 09:43 33.99115 30.84926 33978 ft 403 kts 303°
2026-05-01 09:43 34.02223 30.79306 33977 ft 402 kts 303°
2026-05-01 09:44 34.06874 30.70874 33978 ft 402 kts 303°
2026-05-01 09:45 34.09972 30.65246 33977 ft 402 kts 303°
2026-05-01 09:45 34.14611 30.56814 33977 ft 402 kts 303°
2026-05-01 09:46 34.17729 30.51209 33977 ft 402 kts 303°
2026-05-01 09:46 34.20825 30.45595 33978 ft 402 kts 303°
2026-05-01 09:47 34.23898 30.40001 33977 ft 402 kts 303°
2026-05-01 09:47 34.26984 30.34368 33977 ft 402 kts 302°
2026-05-01 09:48 34.30087 30.28743 33977 ft 402 kts 303°
2026-05-01 09:48 34.33169 30.23105 33977 ft 402 kts 302°
2026-05-01 09:49 34.36238 30.17460 33977 ft 402 kts 302°
2026-05-01 09:49 34.39306 30.11803 33977 ft 402 kts 302°
2026-05-01 09:50 34.42355 30.06176 33977 ft 402 kts 302°
2026-05-01 09:50 34.45513 30.00588 33976 ft 402 kts 307°
2026-05-01 09:51 34.49292 29.95581 33976 ft 402 kts 312°
2026-05-01 09:51 34.53220 29.90726 33978 ft 403 kts 312°
2026-05-01 09:52 34.57141 29.85872 33977 ft 403 kts 312°
2026-05-01 09:52 34.61065 29.81009 33977 ft 403 kts 312°
2026-05-01 09:53 34.64959 29.76175 33971 ft 403 kts 311°
2026-05-01 09:53 34.68882 29.71300 33971 ft 403 kts 311°
2026-05-01 09:54 34.72822 29.66443 33970 ft 403 kts 312°
2026-05-01 09:54 34.76757 29.61570 33970 ft 403 kts 311°
2026-05-01 09:55 34.80696 29.56707 33970 ft 403 kts 311°
2026-05-01 09:55 34.84617 29.51816 33970 ft 403 kts 311°
2026-05-01 09:56 34.88528 29.46919 33970 ft 404 kts 311°
2026-05-01 09:56 34.92448 29.42003 33969 ft 404 kts 311°
2026-05-01 09:57 34.96335 29.37125 33969 ft 404 kts 311°
2026-05-01 09:57 35.00430 29.32427 33969 ft 406 kts 317°
2026-05-01 09:58 35.04937 29.28258 33969 ft 407 kts 319°
2026-05-01 09:58 35.09465 29.24123 33969 ft 407 kts 319°
2026-05-01 09:59 35.13991 29.19979 33968 ft 407 kts 319°
2026-05-01 09:59 35.18515 29.15829 33968 ft 406 kts 319°
2026-05-01 10:00 35.23038 29.11675 33967 ft 406 kts 319°
2026-05-01 10:00 35.27567 29.07518 33968 ft 406 kts 319°
2026-05-01 10:01 35.32073 29.03410 33968 ft 406 kts 319°
2026-05-01 10:01 35.36598 28.99260 33968 ft 406 kts 319°
2026-05-01 10:02 35.41112 28.95106 33973 ft 405 kts 318°
2026-05-01 10:02 35.45625 28.90945 33974 ft 406 kts 318°
2026-05-01 10:03 35.50132 28.86780 33973 ft 405 kts 318°
2026-05-01 10:03 35.54632 28.82617 33976 ft 405 kts 318°
2026-05-01 10:04 35.59129 28.78450 33979 ft 404 kts 318°
2026-05-01 10:04 35.63591 28.74309 33974 ft 404 kts 318°
2026-05-01 10:05 35.68068 28.70148 33970 ft 404 kts 318°
2026-05-01 10:05 35.72547 28.65979 33970 ft 403 kts 318°
2026-05-01 10:06 35.77028 28.61814 33970 ft 403 kts 318°
2026-05-01 10:06 35.81503 28.57657 33969 ft 402 kts 317°
2026-05-01 10:07 35.85959 28.53486 33969 ft 402 kts 317°
2026-05-01 10:07 35.90408 28.49312 33969 ft 402 kts 317°
2026-05-01 10:08 35.97073 28.43048 33968 ft 401 kts 317°
2026-05-01 10:09 36.01520 28.38866 33992 ft 402 kts 317°
2026-05-01 10:09 36.03750 28.36778 34223 ft 402 kts 317°
2026-05-01 10:09 36.05968 28.34688 34549 ft 399 kts 317°
2026-05-01 10:09 36.08175 28.32608 34816 ft 399 kts 317°
2026-05-01 10:10 36.10393 28.30542 35079 ft 398 kts 317°
2026-05-01 10:10 36.12602 28.28471 35286 ft 399 kts 317°
2026-05-01 10:10 36.16987 28.24335 35767 ft 398 kts 317°
2026-05-01 10:11 36.19191 28.22250 35949 ft 399 kts 317°
2026-05-01 10:11 36.21407 28.20151 35952 ft 402 kts 317°
2026-05-01 10:11 36.25854 28.15934 35963 ft 402 kts 317°
2026-05-01 10:12 36.29540 28.12436 35964 ft 401 kts 317°
2026-05-01 10:13 36.36758 28.05207 35965 ft 399 kts 312°
2026-05-01 10:13 36.40782 28.00479 35964 ft 398 kts 311°
2026-05-01 10:14 36.46843 27.93378 35965 ft 399 kts 311°
2026-05-01 10:14 36.50861 27.88693 35966 ft 399 kts 311°
2026-05-01 10:15 36.54913 27.83969 35968 ft 400 kts 311°
2026-05-01 10:15 36.58981 27.79227 35969 ft 400 kts 312°
2026-05-01 10:16 36.63074 27.74510 35971 ft 401 kts 312°
2026-05-01 10:17 36.69202 27.67396 35975 ft 401 kts 311°
2026-05-01 10:17 36.75303 27.60277 35985 ft 402 kts 311°
2026-05-01 10:18 36.81427 27.53109 35989 ft 402 kts 311°
2026-05-01 10:19 36.85519 27.48310 35992 ft 403 kts 311°
2026-05-01 10:19 36.89609 27.43504 35993 ft 404 kts 311°
2026-05-01 10:20 36.95750 27.36276 35994 ft 404 kts 311°
2026-05-01 10:20 36.99848 27.31443 35994 ft 404 kts 311°
2026-05-01 10:21 37.05957 27.24224 35995 ft 404 kts 311°
2026-05-01 10:22 37.12100 27.16947 35996 ft 406 kts 311°
2026-05-01 10:23 37.18222 27.09705 35999 ft 406 kts 311°
2026-05-01 10:23 37.24372 27.02398 36006 ft 406 kts 311°
2026-05-01 10:24 37.32536 26.92630 36022 ft 405 kts 311°
2026-05-01 10:25 37.40698 26.82868 36025 ft 406 kts 312°
2026-05-01 10:26 37.45020 26.78260 36027 ft 407 kts 314°
2026-05-01 10:27 37.53650 26.69019 36028 ft 407 kts 313°
2026-05-01 10:28 37.60055 26.62075 36030 ft 406 kts 313°
2026-05-01 10:28 37.66486 26.55092 36035 ft 406 kts 313°
2026-05-01 10:29 37.72199 26.48887 36043 ft 406 kts 313°
2026-05-01 10:30 37.80746 26.39528 36057 ft 406 kts 313°
2026-05-01 10:31 37.89250 26.30217 36070 ft 405 kts 313°
2026-05-01 10:32 37.95654 26.23205 36080 ft 406 kts 313°
2026-05-01 10:33 38.04153 26.13850 36093 ft 405 kts 313°
2026-05-01 10:34 38.10554 26.06818 36104 ft 405 kts 313°
2026-05-01 10:34 38.14812 26.02117 36108 ft 405 kts 313°
2026-05-01 10:35 38.21190 25.95049 36109 ft 405 kts 313°
2026-05-01 10:35 38.25442 25.90336 36109 ft 406 kts 313°
2026-05-01 10:36 38.32096 25.83652 36109 ft 409 kts 316°
2026-05-01 10:37 38.36597 25.79200 36114 ft 409 kts 315°
2026-05-01 10:37 38.43317 25.72494 36115 ft 409 kts 315°
2026-05-01 10:38 38.47798 25.68001 36117 ft 410 kts 315°
2026-05-01 10:38 38.52285 25.63493 36118 ft 411 kts 315°
2026-05-01 10:39 38.56807 25.58999 36120 ft 411 kts 315°
2026-05-01 10:39 38.61285 25.54521 36122 ft 411 kts 315°
2026-05-01 10:40 38.65794 25.49991 36124 ft 413 kts 315°
2026-05-01 10:40 38.70311 25.45441 36127 ft 413 kts 315°
2026-05-01 10:41 38.74820 25.40889 36129 ft 413 kts 315°
2026-05-01 10:42 38.81612 25.34015 36133 ft 415 kts 315°
2026-05-01 10:42 38.86139 25.29423 36139 ft 415 kts 315°
2026-05-01 10:43 38.90645 25.24845 36143 ft 415 kts 315°
2026-05-01 10:43 38.95177 25.20233 36151 ft 415 kts 315°
2026-05-01 10:44 38.99705 25.15616 36159 ft 416 kts 315°
2026-05-01 10:44 39.04243 25.10982 36168 ft 416 kts 315°
2026-05-01 10:45 39.08778 25.06343 36174 ft 416 kts 315°
2026-05-01 10:45 39.13315 25.01694 36178 ft 417 kts 315°
2026-05-01 10:46 39.17853 24.97036 36180 ft 417 kts 315°
2026-05-01 10:46 39.22388 24.92373 36186 ft 417 kts 315°
2026-05-01 10:47 39.26934 24.87692 36190 ft 419 kts 315°
2026-05-01 10:47 39.31488 24.82994 36192 ft 418 kts 315°
2026-05-01 10:48 39.36037 24.78293 36193 ft 419 kts 315°
2026-05-01 10:48 39.40564 24.73606 36194 ft 419 kts 315°
2026-05-01 10:49 39.45117 24.68884 36196 ft 420 kts 315°
2026-05-01 10:49 39.49679 24.64145 36196 ft 420 kts 315°
2026-05-01 10:50 39.54245 24.59394 36198 ft 421 kts 315°
2026-05-01 10:50 39.58815 24.54630 36200 ft 422 kts 315°
2026-05-01 10:51 39.63387 24.49856 36200 ft 422 kts 315°
2026-05-01 10:51 39.67932 24.45101 36201 ft 423 kts 315°
2026-05-01 10:52 39.72512 24.40303 36202 ft 423 kts 315°
2026-05-01 10:52 39.77089 24.35498 36203 ft 423 kts 315°
2026-05-01 10:53 39.81681 24.30669 36204 ft 424 kts 315°
2026-05-01 10:53 39.86278 24.25826 36206 ft 424 kts 315°
2026-05-01 10:54 39.90831 24.21021 36207 ft 424 kts 315°
2026-05-01 10:54 39.95416 24.16175 36214 ft 425 kts 315°
2026-05-01 10:55 40.00008 24.11311 36219 ft 425 kts 315°
2026-05-01 10:55 40.04592 24.06447 36221 ft 425 kts 315°
2026-05-01 10:56 40.09188 24.01563 36223 ft 425 kts 315°
2026-05-01 10:56 40.13738 23.96718 36226 ft 425 kts 315°
2026-05-01 10:57 40.18319 23.91831 36228 ft 425 kts 315°
2026-05-01 10:57 40.22899 23.86937 36230 ft 425 kts 315°
2026-05-01 10:58 40.27483 23.82030 36232 ft 425 kts 315°
2026-05-01 10:58 40.32068 23.77112 36235 ft 425 kts 315°
2026-05-01 10:59 40.36653 23.72186 36237 ft 426 kts 315°
2026-05-01 10:59 40.41210 23.67281 36240 ft 427 kts 315°
2026-05-01 11:00 40.45808 23.62322 36242 ft 427 kts 315°
2026-05-01 11:00 40.50399 23.57363 36244 ft 427 kts 315°
2026-05-01 11:01 40.54989 23.52395 36250 ft 428 kts 316°
2026-05-01 11:01 40.59591 23.47405 36253 ft 429 kts 316°
2026-05-01 11:02 40.64199 23.42400 36254 ft 429 kts 316°
2026-05-01 11:02 40.68806 23.37386 36255 ft 429 kts 316°
2026-05-01 11:03 40.73417 23.32358 36255 ft 430 kts 316°
2026-05-01 11:03 40.78035 23.27314 36255 ft 431 kts 316°
2026-05-01 11:04 40.82626 23.22289 36256 ft 431 kts 316°
2026-05-01 11:04 40.87244 23.17226 36255 ft 431 kts 316°
2026-05-01 11:05 40.91863 23.12152 36256 ft 432 kts 316°
2026-05-01 11:05 40.96481 23.07069 36261 ft 432 kts 316°
2026-05-01 11:06 41.01113 23.01982 36262 ft 433 kts 316°
2026-05-01 11:06 41.05749 22.96885 36263 ft 433 kts 316°
2026-05-01 11:07 41.12686 22.89187 36264 ft 434 kts 316°
2026-05-01 11:07 41.17311 22.84038 36265 ft 434 kts 316°
2026-05-01 11:08 41.21945 22.78875 36266 ft 435 kts 316°
2026-05-01 11:09 41.28421 22.70572 36268 ft 432 kts 309°
2026-05-01 11:09 41.32427 22.64583 36270 ft 433 kts 309°
2026-05-01 11:10 41.38470 22.55613 36272 ft 434 kts 309°
2026-05-01 11:10 41.42511 22.49632 36274 ft 435 kts 309°
2026-05-01 11:11 41.46566 22.43627 36276 ft 436 kts 309°
2026-05-01 11:11 41.50626 22.37682 36276 ft 436 kts 310°
2026-05-01 11:12 41.54713 22.31680 36279 ft 437 kts 310°
2026-05-01 11:12 41.58793 22.25650 36280 ft 438 kts 310°
2026-05-01 11:13 41.62875 22.19593 36282 ft 438 kts 310°
2026-05-01 11:13 41.66955 22.13525 36284 ft 439 kts 310°
2026-05-01 11:14 41.70344 22.08473 36281 ft 439 kts 310°
2026-05-01 11:14 41.75086 22.01389 36281 ft 440 kts 310°
2026-05-01 11:15 41.79166 21.95280 36283 ft 440 kts 310°
2026-05-01 11:15 41.79854 21.94250 36283 ft 440 kts 310°